Akron Canton, OH

5:49 PM EST on December 16, 2017 (GMT -0500)
Akron-Canton Regional

Weather History for KCAK - March, 2012

Change the Weather History Date:

Thursday, March 1, 2012

  Actual Average Record
Temperature  
Mean Temperature 45 °F 32 °F  
Max Temperature 56 °F 41 °F 66 °F (1972)
Min Temperature 34 °F 24 °F 2 °F (1980)
Degree Days  
Heating Degree Days 20 33  
Month to date heating degree days 20 33  
Since 1 July heating degree days 3857 4577  
Cooling Degree Days 0 0  
Month to date cooling degree days 0 0  
Year to date cooling degree days 0 0  
Moisture  
Dew Point 29 °F    
Average Humidity 63    
Maximum Humidity 76    
Minimum Humidity 49    
Precipitation  
Precipitation T in 0.09 in 0.96 in (1954)
Month to date precipitation T 0.09  
Year to date precipitation 5.83 5.01  
Snow  
Snow 0.00 in 0.30 in - ()
Month to date snowfall 0.0 0.3  
Since 1 July snowfall 27.4 36.8  
Snow Depth 0.00 in    
Sea Level Pressure  
Sea Level Pressure 29.79 in    
Wind  
Wind Speed 11 mph (West)    
Max Wind Speed 31 mph    
Max Gust Speed 38 mph    
Visibility 9 miles    
Events Rain    
T = Trace of Precipitation, MM = Missing Value Source: NWS Daily Summary

Daily Weather History Graph

Daily Weather History Graph

Search for Another Location

Airport or City:

Trip Planner

Search our weather history database for the weather conditions in past years. The results will help you decide how hot, cold, wet, or windy it might be!

Date:

Astronomy

Mar. 01, 2012 Rise Set
Actual Time 6:59 AM EST 6:17 PM EST
Civil Twilight 6:31 AM EST 6:44 PM EST
Nautical Twilight 5:59 AM EST 7:16 PM EST
Astronomical Twilight 5:28 AM EST 7:48 PM EST
Moon 11:34 AM EST (3/1) 1:58 AM EST (3/1)
Length of Visible Light 12h 13m
Length of Day
11h 18m
First Quarter, 56% of the Moon is Illuminated
Mar 1
First Quarter
Mar 8
Full
Mar 14
Last Quarter
Mar 22
New
Mar 30
First Quarter

Hourly Weather History & Observations

Time (EST) Temp. Windchill Dew Point Humidity Pressure Visibility Wind Dir Wind Speed Gust Speed Precip Events Conditions
12:51 AM 50.0 °F - 34.0 °F 54% 29.57 in 10.0 mi WNW 20.7 mph 38.0 mph 0.00 in   Overcast
1:51 AM 48.0 °F - 32.0 °F 54% 29.59 in 10.0 mi West 10.4 mph - N/A   Overcast
2:51 AM 46.0 °F 38.8 °F 28.9 °F 51% 29.59 in 10.0 mi West 18.4 mph 27.6 mph N/A   Overcast
3:51 AM 43.0 °F 35.7 °F 32.0 °F 65% 29.62 in 10.0 mi West 15.0 mph 20.7 mph N/A   Overcast
4:51 AM 42.1 °F 34.5 °F 30.0 °F 62% 29.64 in 10.0 mi West 15.0 mph 25.3 mph N/A   Overcast
5:51 AM 39.9 °F 30.8 °F 28.0 °F 63% 29.67 in 10.0 mi West 18.4 mph 34.5 mph N/A   Overcast
6:51 AM 39.0 °F 29.9 °F 27.0 °F 62% 29.70 in 10.0 mi West 17.3 mph 27.6 mph N/A   Overcast
7:51 AM 37.4 °F 29.3 °F 28.4 °F 70% 29.71 in 8.0 mi West 12.7 mph - N/A   Overcast
8:51 AM 37.9 °F 28.5 °F 28.0 °F 68% 29.75 in 8.0 mi West 17.3 mph 24.2 mph N/A   Overcast
9:51 AM 36.0 °F 27.1 °F 28.9 °F 76% 29.78 in 8.0 mi West 13.8 mph 23.0 mph N/A   Overcast
10:51 AM 37.0 °F 28.9 °F 28.0 °F 70% 29.79 in 10.0 mi West 12.7 mph 23.0 mph 0.00 in   Overcast
11:51 AM 37.0 °F 28.9 °F 28.9 °F 73% 29.82 in 7.0 mi West 12.7 mph - 0.00 in Rain Light Rain
12:51 PM 37.9 °F 30.0 °F 28.0 °F 68% 29.82 in 10.0 mi West 12.7 mph 20.7 mph 0.00 in   Overcast
1:51 PM 37.9 °F 29.6 °F 28.0 °F 68% 29.83 in 10.0 mi WSW 13.8 mph - N/A   Overcast
2:51 PM 39.2 °F 31.6 °F 28.4 °F 65% 29.83 in 10.0 mi West 12.7 mph 21.9 mph N/A   Overcast
3:51 PM 39.0 °F 31.4 °F 28.0 °F 65% 29.87 in 10.0 mi West 12.7 mph - N/A   Overcast
4:51 PM 39.0 °F 32.8 °F 28.9 °F 67% 29.88 in 10.0 mi West 9.2 mph - N/A   Overcast
5:51 PM 39.0 °F 32.3 °F 30.0 °F 70% 29.90 in 9.0 mi West 10.4 mph - N/A   Overcast
6:51 PM 39.0 °F 34.8 °F 30.0 °F 70% 29.92 in 10.0 mi West 5.8 mph - N/A   Overcast
7:51 PM 37.9 °F 34.4 °F 30.0 °F 73% 29.94 in 10.0 mi West 4.6 mph - N/A   Overcast
8:51 PM 37.9 °F - 30.0 °F 73% 29.94 in 10.0 mi Calm Calm - N/A   Overcast
9:51 PM 37.4 °F - 30.2 °F 75% 29.91 in 9.0 mi Calm Calm - N/A   Overcast
10:28 PM 37.4 °F - 28.4 °F 70% 29.90 in 9.0 mi Calm Calm - N/A   Scattered Clouds
10:51 PM 37.0 °F - 28.9 °F 73% 29.93 in 10.0 mi Calm Calm - N/A   Scattered Clouds
11:51 PM 34.0 °F 29.8 °F 28.0 °F 79% 29.92 in 7.0 mi ESE 4.6 mph - N/A   Partly Cloudy